Tiempo cada hora Alleroy

Hoy, 30 Julio, Viernes

Tiempo Temperatura Precipitaciones Viento Presión Humedad
00:00 +20°C° 0 mm 2 mps 729 mmHg 57%
01:00 +20°C° 0 mm 1 mps 729 mmHg 58%
02:00 +20°C° 0 mm 1 mps 729 mmHg 59%
03:00 +20°C° 0 mm 1 mps 729 mmHg 60%
04:00 +20°C° 0 mm 1 mps 729 mmHg 59%
05:00 +21°C° 0 mm 1 mps 729 mmHg 58%
06:00 +22°C° 0 mm 1 mps 729 mmHg 57%
07:00 +24°C° 0 mm 1 mps 729 mmHg 50%
08:00 +26°C° 0 mm 2 mps 729 mmHg 42%
09:00 +28°C° 0 mm 2 mps 729 mmHg 34%
10:00 +30°C° 0 mm 3 mps 729 mmHg 31%
11:00 +33°C° 0 mm 3 mps 729 mmHg 28%
12:00 +34°C° 0 mm 4 mps 728 mmHg 24%
13:00 +34°C° 0 mm 4 mps 728 mmHg 23%
14:00 +35°C° 0 mm 5 mps 728 mmHg 23%
15:00 +35°C° 0 mm 5 mps 727 mmHg 22%
16:00 +34°C° 0 mm 5 mps 727 mmHg 25%
17:00 +32°C° 0 mm 5 mps 727 mmHg 28%
18:00 +30°C° 0 mm 4 mps 727 mmHg 30%
19:00 +28°C° 0 mm 4 mps 727 mmHg 37%
20:00 +25°C° 0 mm 3 mps 728 mmHg 43%
21:00 +23°C° 0 mm 2 mps 728 mmHg 49%
22:00 +23°C° 0 mm 2 mps 727 mmHg 51%
23:00 +21°C° 0 mm 2 mps 727 mmHg 52%

Mañana, 31 Julio, Sábado

Tiempo Temperatura Precipitaciones Viento Presión Humedad
00:00 +22°C° 0 mm 1 mps 727 mmHg 53%
01:00 +22°C° 0 mm 1 mps 727 mmHg 54%
02:00 +21°C° 0 mm 1 mps 727 mmHg 55%
03:00 +21°C° 0 mm 1 mps 727 mmHg 56%
04:00 +22°C° 0 mm 1 mps 727 mmHg 56%
05:00 +22°C° 0 mm 1 mps 727 mmHg 55%
06:00 +23°C° 0 mm 1 mps 728 mmHg 55%
07:00 +25°C° 0 mm 1 mps 728 mmHg 48%
08:00 +27°C° 0 mm 1 mps 728 mmHg 41%
09:00 +30°C° 0 mm 2 mps 728 mmHg 35%
10:00 +31°C° 0 mm 2 mps 728 mmHg 32%
11:00 +34°C° 0 mm 2 mps 728 mmHg 29%
12:00 +35°C° 0 mm 2 mps 728 mmHg 26%
13:00 +36°C° 0 mm 2 mps 727 mmHg 25%
14:00 +36°C° 0 mm 2 mps 727 mmHg 24%
15:00 +37°C° 0 mm 2 mps 727 mmHg 22%
16:00 +35°C° 0 mm 3 mps 727 mmHg 25%
17:00 +34°C° 0 mm 3 mps 727 mmHg 27%
18:00 +33°C° 0 mm 3 mps 727 mmHg 30%
19:00 +30°C° 0 mm 3 mps 727 mmHg 34%
20:00 +27°C° 0 mm 2 mps 728 mmHg 39%
21:00 +25°C° 0 mm 2 mps 728 mmHg 44%
22:00 +25°C° 0 mm 2 mps 728 mmHg 46%
23:00 +24°C° 0 mm 2 mps 728 mmHg 49%

Pasado mañana, 1 Agosto, Domingo

Tiempo Temperatura Precipitaciones Viento Presión Humedad
00:00 +24°C° 0 mm 2 mps 728 mmHg 52%
01:00 +23°C° 0 mm 2 mps 728 mmHg 53%
02:00 +23°C° 0 mm 2 mps 728 mmHg 54%
03:00 +23°C° 0 mm 1 mps 728 mmHg 54%
04:00 +23°C° 0 mm 1 mps 728 mmHg 54%
05:00 +24°C° 0 mm 1 mps 728 mmHg 53%
06:00 +24°C° 0 mm 1 mps 728 mmHg 52%
07:00 +27°C° 0 mm 1 mps 728 mmHg 47%
08:00 +29°C° 0 mm 1 mps 729 mmHg 41%
09:00 +31°C° 0 mm 1 mps 729 mmHg 35%
10:00 +34°C° 0 mm 2 mps 729 mmHg 32%
11:00 +35°C° 0 mm 2 mps 728 mmHg 29%
12:00 +36°C° 0 mm 2 mps 728 mmHg 26%
13:00 +37°C° 0 mm 3 mps 728 mmHg 26%
14:00 +37°C° 0 mm 4 mps 727 mmHg 26%
15:00 +38°C° 0 mm 4 mps 727 mmHg 26%
16:00 +36°C° 0 mm 4 mps 727 mmHg 29%
17:00 +34°C° 0 mm 5 mps 727 mmHg 33%
18:00 +33°C° 0 mm 5 mps 727 mmHg 37%
19:00 +30°C° 0 mm 4 mps 727 mmHg 42%
20:00 +28°C° 0 mm 3 mps 727 mmHg 46%
21:00 +26°C° 0 mm 2 mps 727 mmHg 51%
22:00 +26°C° 0 mm 2 mps 727 mmHg 53%
23:00 +25°C° 0 mm 2 mps 727 mmHg 55%

2 Agosto, Lunes

Tiempo Temperatura Precipitaciones Viento Presión Humedad
00:00 +25°C° 0 mm 2 mps 727 mmHg 57%
01:00 +24°C° 0 mm 2 mps 727 mmHg 58%
02:00 +24°C° 0 mm 1 mps 727 mmHg 59%
03:00 +24°C° 0 mm 1 mps 727 mmHg 60%
04:00 +24°C° 0.1 mm 1 mps 727 mmHg 61%
05:00 +25°C° 0.1 mm 1 mps 728 mmHg 62%
06:00 +25°C° 0.1 mm 1 mps 728 mmHg 63%
07:00 +27°C° 0.1 mm 1 mps 728 mmHg 57%
08:00 +29°C° 0.1 mm 1 mps 728 mmHg 51%
09:00 +30°C° 0.1 mm 1 mps 729 mmHg 46%
10:00 +32°C° 0 mm 2 mps 728 mmHg 40%
11:00 +35°C° 0 mm 2 mps 728 mmHg 33%
12:00 +37°C° 0 mm 3 mps 728 mmHg 27%
13:00 +38°C° 0.1 mm 4 mps 727 mmHg 25%
14:00 +39°C° 0.1 mm 5 mps 727 mmHg 23%
15:00 +39°C° 0.1 mm 6 mps 727 mmHg 21%
16:00 +36°C° 0 mm 5 mps 727 mmHg 27%
17:00 +34°C° 0 mm 4 mps 727 mmHg 32%
18:00 +33°C° 0 mm 3 mps 728 mmHg 37%
19:00 +30°C° 0 mm 3 mps 728 mmHg 41%
20:00 +28°C° 0 mm 2 mps 728 mmHg 46%
21:00 +26°C° 0 mm 2 mps 728 mmHg 50%
22:00 +26°C° 0 mm 2 mps 728 mmHg 50%
23:00 +25°C° 0 mm 2 mps 728 mmHg 50%

3 Agosto, Martes

Tiempo Temperatura Precipitaciones Viento Presión Humedad
00:00 +25°C° 0 mm 1 mps 728 mmHg 51%
01:00 +25°C° 0 mm 1 mps 728 mmHg 50%
02:00 +25°C° 0 mm 1 mps 728 mmHg 50%
03:00 +25°C° 0 mm 1 mps 727 mmHg 49%
04:00 +25°C° 0 mm 1 mps 728 mmHg 49%
05:00 +25°C° 0 mm 1 mps 728 mmHg 48%
06:00 +26°C° 0 mm 2 mps 728 mmHg 48%
07:00 +28°C° 0 mm 2 mps 728 mmHg 42%
08:00 +31°C° 0 mm 2 mps 728 mmHg 36%
09:00 +34°C° 0 mm 2 mps 729 mmHg 30%
10:00 +36°C° 0 mm 2 mps 728 mmHg 28%
11:00 +37°C° 0 mm 2 mps 728 mmHg 26%
12:00 +39°C° 0 mm 2 mps 728 mmHg 23%
13:00 +39°C° 0 mm 2 mps 728 mmHg 23%
14:00 +39°C° 0 mm 2 mps 727 mmHg 23%
15:00 +40°C° 0 mm 3 mps 727 mmHg 22%
16:00 +38°C° 0 mm 3 mps 727 mmHg 24%
17:00 +37°C° 0 mm 3 mps 727 mmHg 27%
18:00 +36°C° 0 mm 3 mps 727 mmHg 29%
19:00 +33°C° 0 mm 3 mps 727 mmHg 34%
20:00 +30°C° 0 mm 3 mps 728 mmHg 39%
21:00 +28°C° 0 mm 2 mps 728 mmHg 43%
22:00 +28°C° 0 mm 2 mps 728 mmHg 44%
23:00 +27°C° 0 mm 2 mps 728 mmHg 44%

4 Agosto, Miércoles

Tiempo Temperatura Precipitaciones Viento Presión Humedad
00:00 +27°C° 0 mm 2 mps 728 mmHg 45%
01:00 +27°C° 0 mm 2 mps 728 mmHg 45%
02:00 +27°C° 0 mm 2 mps 728 mmHg 46%
03:00 +27°C° 0 mm 2 mps 729 mmHg 47%
04:00 +27°C° 0 mm 2 mps 729 mmHg 47%
05:00 +28°C° 0 mm 2 mps 729 mmHg 46%
06:00 +28°C° 0 mm 2 mps 730 mmHg 46%
07:00 +31°C° 0 mm 2 mps 730 mmHg 41%
08:00 +34°C° 0 mm 3 mps 730 mmHg 35%
09:00 +37°C° 0 mm 3 mps 730 mmHg 30%
10:00 +38°C° 0 mm 3 mps 730 mmHg 28%
11:00 +40°C° 0 mm 4 mps 730 mmHg 26%
12:00 +41°C° 0 mm 4 mps 730 mmHg 24%
13:00 +40°C° 0.2 mm 4 mps 730 mmHg 25%
14:00 +40°C° 0.2 mm 4 mps 729 mmHg 27%
15:00 +40°C° 0.2 mm 4 mps 729 mmHg 29%
16:00 +36°C° 0.5 mm 4 mps 730 mmHg 37%
17:00 +33°C° 0.5 mm 5 mps 730 mmHg 45%
18:00 +29°C° 0.5 mm 6 mps 730 mmHg 53%
19:00 +29°C° 0 mm 6 mps 730 mmHg 53%
20:00 +28°C° 0 mm 5 mps 730 mmHg 53%
21:00 +28°C° 0 mm 4 mps 731 mmHg 53%
22:00 +28°C° 0 mm 4 mps 730 mmHg 51%
23:00 +28°C° 0 mm 3 mps 730 mmHg 48%
Mostrar más

Necesitamos Su Consentimiento

Meteoprog y nuestros Proveedores de Servicios pueden almacenar y acceder a sus datos personales como cookies, identificadores de dispositivo u otras tecnologías similares de su dispositivo y procesar dichos datos para personalizar contenido y anuncios, además de ofrecer funciones de redes sociales y analizar el tráfico.

  • Almacenar y/o acceder a información en su dispositivo

    Se puede almacenar o acceder a cookies, identificadores de dispositivo u otra información de su dispositivo para los fines anteriormente indicados.

  • Anuncios y contenido personalizados, medición de anuncios y contenido, percepciones del público, y desarrollo de productos

    Los anuncios y el contenido pueden personalizarse en base a su perfil. Se pueden añadir más datos para personalizar mejor los anuncios y contenidos. Se puede medir el rendimiento de los anuncios y contenidos. Se puede obtener la percepción sobre el público que ha visto los anuncios y contenidos. Dichos datos pueden usarse para desarrollar o mejorar la experiencia del usuario, sistemas y software.

Al hacer clic en ‘Estoy De Acuerdo’ usted permitirá el uso de las cookies, identificadores de dispositivo, balizas web u otras tecnologías similares indicadas. Su configuración puede cambiarse desde el navegador de su dispositivo.

Para ciertos fines, los intereses legítimos pueden ser considerados por encima del consentimiento. Puede leer más sobre ello en nuestra Política de Privacidad y Cookies.